Wind_Speed
37 36 35 34 33 31 28 28 29 30 29 28 28 28 28 28 28 28 27 26 24 23 22 20 17 17 19 24 27 28 26 25 23 21 20 18 15 13 10 8 6 4 4 4 4 6 7 8 9 10 11 12 13 13 14 14 14 14 14 15 15 16 16
36 34 34 33 32 31 29 27 27 27 28 29 29 29 29 29 29 28 27 26 25 24 24 22 19 18 19 22 26 28 28 27 26 24 22 19 16 14 12 10 7 6 6 5 5 6 7 8 8 8 9 10 11 12 12 12 12 12 12 13 14 14 15
36 34 33 32 31 30 29 28 28 27 27 28 29 28 28 28 29 28 26 25 25 25 25 23 21 19 19 21 24 26 27 26 25 23 20 18 16 15 14 12 9 8 7 7 6 6 7 8 7 7 8 8 8 9 10 10 10 10 11 11 12 13 13
37 35 33 32 30 29 28 27 27 27 27 28 28 28 27 27 27 27 26 26 26 26 26 24 22 21 20 20 22 24 25 24 22 20 18 18 18 17 15 14 11 9 8 8 7 6 7 7 7 7 7 6 6 6 7 8 8 8 9 10 11 11 12
40 37 35 33 31 30 29 27 25 25 26 27 27 28 27 27 27 27 27 27 28 27 26 25 24 22 20 19 21 23 23 23 21 19 19 19 19 18 17 15 13 11 10 9 8 7 6 7 7 7 6 6 5 5 5 6 6 7 7 8 9 10 11
43 40 37 35 33 32 29 27 25 25 25 25 27 28 27 27 27 27 27 28 29 28 27 26 25 23 21 20 21 22 23 23 22 20 20 21 20 19 17 16 14 13 11 10 9 8 6 6 6 6 6 6 4 4 3 3 4 4 5 7 8 9 10
46 43 40 38 35 33 30 29 27 26 24 24 26 28 29 29 28 28 27 29 30 30 28 27 25 23 21 20 21 21 22 23 22 22 22 22 21 20 18 17 16 15 13 11 10 9 8 7 7 7 7 6 5 4 2 1 2 3 5 7 9 10 11
49 47 44 41 38 35 33 31 30 28 26 26 27 28 28 29 29 29 30 30 31 31 30 28 26 24 22 20 20 21 21 22 23 23 24 23 23 22 20 18 17 16 14 12 11 10 9 8 8 7 7 6 5 4 3 1 1 4 6 8 10 11 12
52 50 47 44 41 39 37 35 33 31 30 29 28 27 27 27 28 29 30 31 32 32 32 30 26 24 22 21 21 21 21 22 23 24 25 25 24 24 22 20 18 17 16 14 13 12 11 10 9 8 7 7 6 5 4 3 3 4 6 8 10 12 12
54 52 50 47 45 42 40 38 36 34 33 31 30 28 27 27 27 29 31 33 34 33 32 30 28 25 24 23 22 22 23 23 23 24 25 25 25 25 24 22 21 19 17 16 15 13 12 12 10 9 8 7 7 6 5 4 4 5 7 9 10 11 12
57 55 53 51 48 46 43 41 39 38 36 34 32 30 29 28 28 29 31 34 36 34 31 30 30 28 26 24 23 23 25 25 25 25 25 24 24 25 24 23 23 21 19 19 17 16 14 13 12 10 9 8 8 7 6 5 6 7 8 9 10 11 12
60 58 56 54 51 49 47 44 42 40 38 37 35 33 30 29 28 29 31 34 37 35 30 30 31 29 27 26 25 25 26 27 27 27 26 25 24 24 24 23 23 22 21 20 19 18 17 16 14 12 10 9 9 8 8 7 7 8 8 9 10 10 11
63 61 59 56 54 53 50 48 46 43 41 39 37 36 33 31 29 29 30 34 38 38 33 30 31 31 30 28 27 27 28 29 29 29 27 26 25 25 24 24 23 22 21 21 21 20 20 18 17 15 13 12 11 10 10 10 9 9 9 9 9 10 11
66 64 62 59 57 55 53 51 49 46 44 42 40 39 36 34 31 30 30 33 38 41 38 33 32 32 31 31 30 30 30 30 31 31 30 28 27 27 27 26 25 24 23 22 22 22 21 20 19 17 16 15 13 12 12 11 11 10 10 9 9 9 10
68 67 65 62 60 58 56 54 52 50 48 45 44 41 39 37 34 32 31 32 37 42 41 36 33 32 31 32 32 32 31 31 32 32 32 31 30 30 30 29 27 26 24 24 23 22 22 22 21 20 19 18 16 15 15 14 13 11 10 9 8 9 10
71 70 68 66 63 61 59 57 55 53 51 49 47 45 43 41 38 35 33 32 35 41 43 39 35 33 32 32 34 33 32 31 32 33 34 34 34 33 32 31 30 28 27 26 24 24 23 22 22 22 21 20 19 18 17 16 14 12 11 9 8 8 9
75 73 72 70 67 64 61 59 58 56 54 52 50 48 46 44 42 39 36 34 36 41 44 42 39 36 34 34 35 34 33 32 32 33 34 35 36 35 35 34 32 31 30 29 27 26 25 25 24 24 23 22 21 21 19 18 15 13 11 10 9 9 9
78 76 75 73 70 67 64 62 60 59 57 55 53 51 49 47 45 42 39 37 37 41 45 45 42 39 38 36 35 34 34 34 32 31 33 35 36 37 37 36 35 33 32 31 30 29 28 27 27 26 24 23 23 22 21 19 16 14 13 12 11 10 10
81 79 78 76 74 71 68 65 63 61 59 58 56 54 52 50 48 45 42 40 40 42 45 46 45 42 41 39 36 36 35 35 33 32 32 34 35 37 37 37 36 35 34 33 32 31 30 29 29 27 25 24 24 23 22 20 17 16 15 14 13 12 12
85 83 81 79 77 74 71 69 66 64 62 60 58 57 55 53 51 49 46 44 42 43 46 47 46 44 44 41 38 37 36 35 35 34 33 33 34 36 38 38 39 38 37 35 33 32 32 31 29 28 26 24 24 23 22 21 19 18 17 16 15 14 14
88 86 84 82 79 77 74 71 69 67 65 63 61 60 58 56 54 52 49 47 45 45 47 48 46 45 45 43 41 39 37 37 37 36 34 33 33 35 36 38 39 39 39 37 36 35 34 32 30 29 27 25 24 23 23 22 20 19 18 18 17 16 16
90 88 86 84 82 79 77 74 72 70 68 66 65 63 62 60 57 55 53 51 49 47 48 50 49 46 44 43 42 41 39 38 39 38 36 34 34 34 35 37 38 38 37 37 37 36 35 34 32 31 28 26 24 23 23 23 21 21 21 20 19 18 18
92 90 88 86 84 82 80 77 75 73 71 70 68 66 64 63 61 58 56 54 53 50 49 52 51 46 41 42 44 44 43 42 43 42 40 38 37 36 36 37 38 37 36 36 36 36 35 35 34 32 29 27 25 25 25 24 23 22 22 22 21 21 21
93 91 90 88 86 84 82 80 78 75 74 73 71 69 68 67 65 63 60 58 56 54 52 53 52 47 44 46 48 48 47 47 45 44 43 42 40 38 37 37 37 36 35 34 34 34 33 33 32 31 29 27 27 27 26 25 24 24 24 24 23 23 21
95 93 91 90 88 86 84 82 80 78 77 75 74 73 71 69 67 66 63 60 59 57 55 54 55 53 52 53 52 50 49 48 47 45 45 44 42 40 37 37 37 37 36 34 33 31 30 29 29 28 27 27 27 27 27 26 26 25 25 25 24 23 21
97 95 93 91 90 88 86 85 83 81 79 78 77 76 74 72 70 69 66 64 62 61 59 57 58 59 58 57 55 53 51 51 49 47 47 47 45 42 39 38 39 39 38 35 32 30 29 28 27 27 26 26 27 27 27 27 27 26 26 25 24 24 22
99 98 96 94 92 90 88 87 85 83 82 81 80 78 76 74 73 72 70 67 65 64 63 61 61 62 62 60 58 56 55 55 54 52 50 48 46 44 42 41 41 41 39 36 33 31 30 29 28 27 26 25 25 25 26 27 27 26 26 25 24 24 22
102 101 99 97 95 93 92 90 88 86 84 83 82 81 79 77 76 74 73 70 69 68 67 67 65 65 65 64 62 59 57 57 57 55 53 51 49 47 45 44 44 43 42 40 38 35 33 32 30 29 28 27 26 26 27 27 26 25 25 24 24 24 23
105 104 103 101 99 97 95 93 91 89 87 86 84 83 81 79 78 77 75 74 72 71 71 71 69 67 68 68 65 62 60 60 59 57 55 54 53 51 50 49 47 46 46 45 43 40 37 36 34 33 31 31 30 29 29 28 27 26 25 25 24 24 24
108 107 106 105 103 100 98 96 95 92 90 89 87 85 84 82 81 79 78 77 75 73 73 73 72 71 70 70 70 68 65 64 63 60 58 58 56 53 53 52 50 48 48 47 45 44 42 40 38 37 35 34 34 33 32 30 29 28 26 26 25 24 25
112 110 109 108 107 104 101 100 98 96 94 91 89 88 87 85 83 82 81 80 78 76 76 76 76 74 73 72 74 74 70 66 65 64 63 61 59 56 55 55 53 50 49 48 47 47 45 43 42 41 40 39 38 36 35 33 31 29 28 27 26 25 26
115 114 113 111 110 108 106 103 101 100 97 95 93 91 89 88 86 85 83 82 81 79 79 78 78 78 76 75 76 77 74 69 68 67 66 64 62 59 57 57 56 54 52 51 51 49 48 46 45 44 44 43 42 41 40 36 33 32 31 29 28 27 27
117 117 116 115 113 112 110 107 105 103 101 99 96 94 92 90 89 87 86 85 84 82 81 80 80 81 80 78 78 78 77 74 71 69 67 67 66 63 61 60 59 58 56 55 55 53 51 50 49 48 46 45 45 45 43 40 38 35 33 32 31 28 28
118 118 118 117 116 115 113 111 109 107 105 103 100 98 95 93 91 90 89 87 86 85 84 83 83 83 83 82 80 79 79 78 75 71 69 68 68 67 65 63 62 61 61 60 58 57 55 53 52 51 50 48 46 46 45 45 43 39 34 34 33 30 30
120 120 119 119 119 118 117 115 113 111 109 106 104 102 99 97 95 93 92 90 89 88 87 85 85 85 85 85 84 82 81 81 79 75 71 70 70 68 67 66 65 63 63 63 62 60 57 55 54 54 53 50 49 48 48 48 46 42 39 38 34 30 31
122 121 121 121 120 120 120 119 117 115 113 111 108 106 103 101 98 96 94 93 92 90 89 88 87 87 87 87 87 85 83 82 81 79 76 73 72 70 69 69 68 66 65 66 65 63 60 58 57 57 56 53 52 52 51 50 48 46 44 41 35 32 33
123 123 123 122 122 122 122 122 121 119 117 115 113 110 107 105 102 100 98 96 95 93 92 91 90 89 89 89 89 89 86 83 83 84 82 78 75 75 74 73 72 69 68 68 67 66 64 62 61 60 59 57 56 56 55 53 53 52 49 45 41 38 38
123 124 124 124 124 124 124 124 124 123 121 119 117 114 111 108 106 104 102 100 98 96 95 93 92 92 91 91 91 91 90 87 85 86 86 83 79 78 77 76 75 74 73 71 70 69 67 65 64 63 62 60 59 59 58 57 56 55 53 51 49 47 46
Wind_Direction
241 243 245 247 247 247 247 249 250 246 239 232 228 227 229 231 232 232 233 233 232 229 226 221 217 215 219 222 224 228 234 240 247 253 258 262 266 264 247 236 237 234 221 200 158 136 130 125 117 111 107 104 100 95 89 83 78 72 66 62 58 56 54
238 238 239 241 243 242 239 236 237 238 236 232 227 225 225 227 230 231 233 233 232 230 226 222 217 213 216 220 222 225 230 236 243 248 252 255 259 255 239 227 228 227 220 209 182 154 142 134 126 117 113 111 107 101 95 88 82 75 67 60 55 52 50
235 234 234 236 238 238 234 230 229 229 228 228 227 225 222 223 227 229 231 231 231 230 226 222 219 216 216 217 218 220 224 230 235 239 243 244 246 243 230 220 220 222 219 212 195 172 156 148 140 128 120 118 113 107 100 94 87 78 69 59 52 47 44
233 231 231 231 232 232 230 228 228 227 226 226 226 224 220 220 224 227 227 227 227 227 224 222 220 218 218 218 217 217 217 220 224 226 228 232 234 232 224 217 214 216 218 214 203 186 169 158 151 141 132 128 123 113 105 98 91 82 70 59 50 43 40
234 230 229 228 227 227 227 225 224 226 226 226 225 222 219 219 221 223 224 223 223 222 220 220 221 219 216 216 218 219 216 213 212 212 217 223 226 224 220 216 213 213 216 215 208 200 183 167 161 154 148 145 139 126 111 99 90 79 65 54 44 37 33
236 232 228 227 225 225 225 222 219 220 223 224 224 222 218 217 220 221 222 222 219 218 216 218 222 221 217 214 216 219 217 212 206 204 210 216 218 216 215 215 214 213 213 213 211 206 193 182 174 167 164 165 163 149 126 100 80 63 45 35 30 26 24
238 235 230 227 226 224 223 221 218 216 219 223 224 221 216 214 215 216 218 219 217 214 214 216 221 224 221 217 216 219 219 214 206 202 206 211 213 212 212 214 215 215 214 213 213 209 202 196 189 184 183 184 184 179 165 119 54 28 16 13 12 12 12
238 237 233 229 227 224 222 221 218 215 218 220 222 223 220 215 213 212 213 215 214 213 212 213 217 222 224 222 218 220 223 219 211 205 204 206 207 209 210 211 214 216 216 216 214 212 209 205 201 200 199 200 200 200 200 230 332 353 356 360 3 4 3
238 237 235 232 229 225 223 221 219 216 217 218 219 221 222 218 215 214 213 212 212 212 212 211 213 218 223 224 221 220 223 224 219 212 208 206 206 207 208 209 212 214 215 217 217 215 214 212 210 211 210 210 212 213 221 249 303 332 344 352 358 359 357
237 237 236 234 231 228 224 222 220 218 218 219 219 220 220 218 217 215 213 210 209 210 213 212 210 213 218 221 221 219 220 223 224 220 215 211 208 208 208 208 211 212 213 216 218 217 218 218 217 217 216 216 219 225 236 260 293 317 332 345 353 353 351
236 236 235 234 232 230 227 224 223 221 219 220 221 222 221 219 218 216 214 210 206 205 211 215 212 211 214 215 216 218 219 220 224 225 223 219 214 212 211 211 212 212 212 215 217 218 220 221 223 223 222 222 227 235 249 266 286 305 322 337 344 345 343
235 235 235 234 233 231 229 226 225 223 222 221 222 223 223 220 219 219 216 213 206 201 207 218 217 213 213 212 212 215 216 217 220 223 225 225 222 218 217 216 216 215 214 215 217 219 222 223 225 227 227 229 234 241 253 266 281 297 314 328 336 337 335
235 235 235 234 233 232 230 228 226 225 224 222 221 222 224 222 221 221 219 215 207 200 202 214 220 218 214 212 211 212 213 215 217 219 221 224 225 224 223 222 222 220 218 218 218 219 222 225 227 229 231 234 238 244 253 263 274 287 302 316 324 326 326
235 236 235 235 234 233 232 230 228 227 225 224 222 221 222 222 222 222 221 217 210 203 200 206 216 221 219 215 213 212 211 212 216 216 217 219 222 225 226 225 225 225 223 222 221 221 223 225 227 229 233 236 239 244 251 258 266 275 287 300 308 313 314
234 236 236 235 234 234 233 231 230 228 227 226 224 222 221 221 222 222 222 219 212 206 203 203 210 219 224 221 218 214 211 210 212 215 215 216 218 221 224 225 225 225 226 226 224 224 224 226 227 228 231 236 240 243 248 252 257 264 273 283 292 298 300
232 235 236 236 234 234 233 232 231 230 228 227 225 223 221 221 221 220 221 219 214 209 206 205 207 213 223 227 224 220 216 211 211 212 213 214 215 217 220 222 224 224 226 226 226 226 226 226 227 228 230 233 237 240 244 246 249 254 261 267 274 279 283
231 233 235 236 235 234 234 233 232 231 230 228 227 225 222 221 220 220 219 218 215 211 209 208 208 209 217 227 228 225 222 218 214 212 212 213 214 215 218 220 221 223 224 225 226 226 227 227 227 228 228 229 233 236 239 241 241 244 250 253 256 261 265
231 232 234 236 236 234 233 233 233 232 231 230 228 226 224 222 221 219 218 217 216 212 210 210 209 208 212 221 228 228 226 224 221 217 214 214 214 214 217 219 220 222 223 225 227 227 228 229 229 228 228 228 230 233 235 236 235 236 239 241 242 244 247
231 231 233 234 235 235 234 233 233 232 231 230 229 228 226 223 222 220 218 217 216 213 211 211 212 211 211 216 223 228 227 226 226 223 219 217 215 214 216 218 221 223 224 225 226 228 230 231 232 231 230 229 229 231 232 233 231 231 231 231 231 232 234
231 232 232 233 234 235 234 233 232 232 232 231 230 229 227 225 223 221 219 217 216 214 212 211 212 214 214 214 218 226 228 226 226 226 224 221 218 216 215 216 218 220 222 223 225 228 230 231 233 233 233 232 231 230 232 231 229 227 225 224 224 225 227
232 232 232 233 233 234 234 233 232 232 232 231 230 229 229 227 224 222 220 218 217 215 212 211 212 216 217 215 217 222 227 228 227 226 227 226 224 221 218 217 217 218 218 219 221 224 226 228 232 233 234 233 232 231 232 230 226 224 223 221 219 220 224
232 232 233 233 233 233 233 233 232 231 231 231 230 229 229 228 225 222 220 219 218 216 214 212 213 216 217 216 219 222 227 231 231 229 228 228 227 226 223 221 221 220 218 217 218 219 221 224 227 229 230 230 231 231 232 229 224 222 221 220 218 220 223
232 232 232 233 233 233 233 232 231 230 230 230 230 229 228 228 227 223 220 219 219 218 215 213 213 215 215 216 220 223 224 228 230 228 227 227 226 226 224 221 222 222 221 219 217 217 218 219 221 223 223 224 227 229 229 225 220 219 219 219 219 221 224
233 232 232 232 232 232 232 232 231 230 230 229 229 229 228 227 226 224 221 219 219 218 217 214 211 212 214 216 219 221 223 226 228 228 228 228 227 226 223 221 221 222 220 218 215 213 213 214 216 217 216 217 220 223 222 219 216 216 218 219 221 224 226
233 233 232 232 232 232 232 231 231 230 230 229 229 228 228 226 226 225 222 219 218 218 218 215 212 210 213 215 217 219 221 225 228 230 230 229 228 227 224 221 220 220 219 217 214 210 209 209 211 213 213 214 216 217 217 215 214 215 218 220 223 228 230
234 234 233 232 232 232 231 231 231 230 229 229 229 228 228 227 226 226 223 220 218 218 218 217 214 212 213 215 216 217 218 220 223 227 229 228 227 227 226 223 220 218 216 214 212 210 208 208 210 212 213 214 215 217 217 216 215 216 218 221 225 231 235
233 234 234 233 233 232 231 231 231 230 229 229 229 229 228 227 226 226 224 221 219 217 217 217 215 214 214 216 217 217 218 219 220 222 225 226 225 225 226 225 223 220 216 212 210 210 209 209 211 212 214 217 220 222 222 222 220 219 220 222 225 231 236
231 233 233 233 233 233 232 231 230 230 229 229 229 229 228 227 226 226 225 223 220 217 217 217 216 215 215 216 216 217 218 220 221 221 221 222 222 222 224 226 225 223 220 216 213 212 212 212 213 215 216 219 224 228 228 228 226 225 224 224 226 230 234
229 231 232 232 232 232 232 232 231 230 229 229 229 229 228 227 226 226 225 224 221 218 217 217 217 216 216 216 216 218 218 219 221 221 221 220 219 219 220 222 224 223 222 220 217 214 213 213 215 217 218 219 223 227 230 231 231 230 230 229 230 232 236
228 229 231 231 232 231 231 232 232 231 230 229 228 228 228 228 227 226 225 225 223 220 218 218 217 217 217 216 216 217 217 217 218 220 221 221 220 218 218 220 222 222 223 223 221 218 216 215 216 217 219 220 220 224 228 231 231 231 232 233 233 235 239
227 228 229 230 231 231 230 230 231 232 231 229 228 228 228 228 227 226 226 225 224 221 219 218 218 217 217 217 217 217 217 216 217 219 221 222 221 220 219 220 222 222 223 224 224 222 220 219 218 218 220 222 222 223 226 229 231 231 232 233 234 237 241
227 228 228 229 230 231 230 230 230 231 231 230 229 228 227 227 227 227 226 225 224 223 221 219 218 218 218 218 219 219 217 217 217 219 220 222 222 222 221 220 221 222 223 224 225 224 223 223 222 222 224 225 225 224 225 228 231 231 231 232 234 239 244
228 228 228 228 229 230 231 230 230 229 230 230 230 228 227 227 227 227 226 225 225 224 222 220 219 218 218 218 219 220 219 218 218 218 219 221 222 222 222 221 221 222 223 225 226 226 226 227 227 227 228 228 228 226 226 230 233 231 230 231 231 234 244
229 229 228 228 229 229 230 230 230 230 229 229 229 229 228 227 226 226 226 226 225 224 224 222 220 219 219 219 219 220 220 219 218 218 218 219 221 223 223 223 223 223 224 225 226 227 227 228 229 229 230 230 231 230 231 234 235 232 230 232 231 231 240
230 229 229 228 229 229 229 230 230 230 229 229 229 229 228 227 226 226 226 226 225 225 224 223 221 220 219 219 219 220 220 219 218 218 219 219 220 222 224 224 225 225 225 226 227 228 228 228 229 230 230 230 230 231 233 235 234 230 227 230 233 234 239
231 230 229 229 228 228 229 229 229 229 229 229 228 228 228 228 227 226 226 226 226 225 224 224 222 221 220 219 219 220 220 219 218 218 219 219 220 221 223 225 226 226 227 227 228 228 228 229 230 230 230 230 231 231 232 232 231 229 228 229 232 236 240
232 231 230 230 229 228 228 228 229 229 229 229 228 228 227 228 227 226 226 225 225 225 224 224 223 222 221 220 220 220 220 220 219 219 219 219 219 219 220 222 224 226 227 229 230 230 229 229 230 231 231 231 232 232 232 230 229 230 231 230 231 231 233
232 232 231 230 230 229 228 228 228 228 228 229 229 228 227 226 227 227 226 225 225 225 224 224 223 223 222 221 220 220 221 220 219 219 218 219 219 219 220 221 222 224 225 227 229 230 230 230 231 232 231 231 231 232 232 231 230 231 232 231 230 229 229
Height
10972 10974 10976 10978 10981 10985 10987 10988 10989 10990 10992 10993 10994 10996 10997 10998 11000 11001 11003 11005 11007 11008 11009 11010 11011 11012 11013 11014 11016 11017 11019 11021 11022 11023 11025 11026 11027 11028 11028 11029 11030 11031 11031 11032 11033 11033 11034 11035 11035 11034 11034 11034 11034 11033 11033 11033 11033 11033 11033 11033 11033 11032 11032
10968 10970 10972 10974 10977 10981 10983 10984 10985 10986 10988 10989 10990 10991 10993 10995 10996 10998 11001 11003 11005 11006 11007 11008 11009 11009 11010 11012 11013 11015 11017 11019 11020 11022 11023 11025 11026 11027 11027 11028 11029 11030 11031 11032 11033 11033 11034 11034 11035 11035 11035 11034 11034 11034 11034 11034 11034 11034 11034 11033 11033 11033 11032
10963 10966 10968 10970 10973 10977 10979 10980 10981 10983 10985 10986 10987 10988 10990 10991 10993 10995 10998 11000 11002 11004 11006 11007 11007 11007 11008 11009 11010 11012 11014 11016 11018 11020 11022 11023 11024 11025 11026 11027 11028 11029 11030 11031 11032 11033 11033 11033 11034 11035 11035 11034 11034 11034 11034 11034 11034 11034 11034 11034 11033 11033 11033
10959 10962 10964 10967 10969 10971 10974 10976 10978 10980 10982 10983 10984 10986 10987 10988 10990 10992 10994 10997 10999 11001 11004 11005 11006 11005 11006 11007 11008 11010 11012 11014 11015 11017 11019 11021 11022 11023 11025 11026 11027 11028 11029 11030 11031 11032 11032 11033 11033 11034 11034 11034 11034 11034 11034 11034 11034 11034 11034 11034 11033 11033 11033
10953 10957 10960 10963 10965 10967 10970 10973 10975 10978 10979 10981 10982 10983 10984 10985 10987 10988 10991 10993 10995 10998 11001 11003 11004 11003 11004 11005 11006 11008 11009 11011 11013 11015 11016 11018 11020 11022 11023 11025 11026 11027 11028 11029 11030 11031 11032 11032 11033 11033 11034 11034 11034 11034 11034 11034 11034 11034 11034 11033 11033 11033 11033
10948 10952 10956 10959 10962 10964 10967 10969 10972 10974 10976 10978 10980 10980 10981 10982 10983 10985 10988 10990 10993 10995 10998 11000 11001 11002 11003 11004 11005 11006 11007 11009 11010 11012 11014 11016 11018 11020 11022 11023 11024 11025 11026 11028 11029 11030 11031 11032 11032 11033 11033 11033 11033 11033 11033 11033 11033 11033 11033 11033 11033 11033 11032
10942 10947 10951 10955 10958 10961 10964 10966 10968 10971 10973 10975 10976 10976 10977 10977 10979 10982 10984 10987 10989 10992 10994 10997 10999 11001 11001 11002 11003 11004 11005 11006 11008 11009 11011 11013 11016 11018 11020 11021 11022 11024 11025 11026 11027 11029 11030 11031 11032 11032 11032 11032 11032 11033 11033 11033 11033 11033 11033 11033 11032 11032 11032
10936 10941 10946 10950 10954 10957 10960 10962 10964 10967 10970 10971 10972 10973 10974 10975 10976 10978 10980 10983 10986 10988 10991 10993 10996 10998 11000 11001 11002 11003 11004 11005 11006 11007 11009 11011 11013 11015 11017 11019 11020 11022 11023 11025 11026 11027 11028 11029 11031 11031 11032 11032 11032 11032 11032 11032 11032 11032 11032 11032 11032 11032 11031
10931 10935 10940 10945 10948 10952 10955 10957 10960 10963 10965 10966 10967 10969 10971 10972 10973 10975 10977 10980 10983 10985 10988 10990 10992 10995 10997 10998 11000 11001 11003 11004 11005 11006 11007 11009 11011 11012 11014 11016 11018 11020 11022 11023 11024 11025 11027 11028 11029 11030 11030 11031 11031 11031 11031 11031 11031 11031 11031 11031 11031 11031 11031
10925 10929 10934 10939 10943 10946 10950 10953 10955 10958 10960 10962 10964 10965 10967 10968 10970 10972 10974 10976 10979 10982 10985 10987 10989 10991 10993 10995 10997 10998 11000 11002 11003 11004 11005 11007 11008 11010 11012 11014 11016 11017 11019 11021 11022 11024 11025 11026 11027 11028 11029 11029 11030 11030 11030 11030 11031 11031 11031 11031 11031 11031 11030
10919 10924 10928 10933 10937 10940 10944 10947 10950 10953 10956 10958 10960 10962 10963 10965 10967 10969 10971 10973 10976 10980 10984 10985 10986 10987 10989 10991 10993 10995 10996 10998 11001 11002 11004 11005 11007 11009 11011 11012 11013 11015 11017 11019 11020 11022 11023 11024 11025 11026 11027 11028 11028 11029 11029 11029 11029 11030 11030 11030 11030 11030 11030
10913 10918 10922 10926 10931 10934 10938 10942 10945 10948 10951 10954 10956 10958 10960 10962 10964 10966 10968 10971 10973 10978 10982 10983 10984 10985 10986 10988 10989 10991 10992 10995 10997 10999 11001 11004 11006 11007 11009 11011 11012 11013 11015 11016 11018 11020 11021 11022 11023 11024 11025 11026 11026 11027 11027 11028 11028 11028 11029 11029 11029 11029 11029
10907 10911 10915 10920 10924 10928 10932 10936 10939 10943 10946 10949 10952 10954 10956 10958 10961 10963 10965 10968 10971 10974 10978 10981 10982 10983 10984 10985 10986 10987 10989 10991 10993 10995 10998 11001 11004 11006 11007 11009 11010 11012 11013 11014 11016 11017 11018 11019 11021 11022 11023 11024 11024 11025 11025 11026 11026 11027 11027 11027 11028 11028 11028
10901 10905 10909 10914 10918 10922 10926 10930 10933 10937 10940 10944 10947 10949 10952 10955 10957 10959 10961 10964 10968 10971 10974 10976 10978 10980 10981 10982 10982 10983 10984 10986 10988 10991 10994 10997 11000 11002 11004 11006 11007 11009 11011 11012 11013 11014 11015 11017 11018 11019 11020 11021 11021 11022 11023 11023 11024 11024 11025 11026 11026 11026 11026
10894 10898 10903 10908 10912 10916 10920 10924 10928 10931 10935 10938 10941 10945 10948 10950 10953 10955 10958 10960 10963 10967 10970 10972 10975 10977 10979 10980 10980 10980 10981 10982 10984 10987 10989 10992 10995 10998 11000 11002 11004 11006 11008 11009 11010 11011 11013 11014 11015 11016 11017 11018 11019 11019 11020 11020 11021 11022 11023 11023 11024 11024 11025
10888 10892 10896 10901 10905 10909 10913 10918 10922 10925 10929 10933 10936 10940 10943 10945 10948 10951 10953 10956 10959 10962 10966 10969 10971 10974 10976 10977 10978 10979 10980 10980 10981 10982 10985 10987 10990 10992 10995 10998 11000 11002 11004 11006 11007 11008 11010 11011 11012 11013 11014 11015 11015 11016 11017 11017 11018 11019 11020 11021 11022 11022 11023
10880 10885 10889 10893 10898 10903 10907 10911 10915 10919 10923 10927 10931 10935 10938 10941 10944 10946 10949 10952 10955 10958 10961 10964 10967 10969 10972 10973 10975 10977 10979 10979 10979 10979 10981 10983 10985 10988 10991 10993 10996 10998 11000 11002 11004 11005 11006 11007 11009 11010 11011 11012 11012 11013 11013 11014 11015 11017 11017 11018 11019 11020 11021
10873 10877 10882 10886 10891 10896 10900 10904 10908 10913 10917 10921 10925 10929 10932 10936 10939 10942 10945 10947 10950 10953 10956 10959 10962 10965 10967 10969 10972 10975 10976 10977 10978 10978 10979 10980 10981 10984 10986 10989 10992 10994 10996 10998 11000 11002 11003 11004 11005 11006 11008 11009 11010 11010 11010 11011 11012 11014 11015 11015 11016 11017 11018
10864 10869 10874 10878 10883 10888 10892 10897 10901 10906 10911 10915 10919 10923 10927 10931 10934 10937 10940 10943 10945 10948 10952 10955 10959 10961 10963 10966 10969 10971 10972 10974 10976 10977 10978 10978 10979 10981 10983 10986 10988 10990 10992 10994 10997 10999 11000 11001 11003 11004 11005 11007 11007 11008 11008 11009 11010 11011 11011 11012 11013 11014 11015
10855 10860 10866 10870 10875 10879 10884 10889 10894 10899 10903 10908 10912 10917 10921 10925 10928 10932 10935 10938 10940 10943 10947 10951 10955 10958 10960 10962 10965 10967 10969 10971 10972 10973 10975 10976 10977 10978 10979 10981 10983 10985 10987 10990 10993 10995 10997 10998 11000 11001 11003 11004 11005 11006 11006 11006 11007 11008 11008 11009 11010 11011 11012
10845 10851 10857 10862 10867 10871 10875 10881 10887 10891 10896 10901 10905 10910 10913 10918 10922 10926 10930 10933 10935 10938 10942 10946 10950 10953 10956 10959 10962 10964 10966 10968 10968 10970 10972 10973 10975 10975 10976 10977 10978 10980 10982 10984 10987 10989 10991 10993 10996 10998 10999 11001 11003 11004 11004 11004 11005 11005 11006 11006 11007 11008 11009
10835 10841 10847 10852 10858 10862 10867 10872 10878 10883 10888 10893 10897 10902 10906 10910 10915 10919 10923 10927 10930 10933 10937 10940 10943 10947 10953 10958 10961 10962 10964 10965 10966 10967 10968 10970 10971 10972 10974 10975 10975 10976 10978 10980 10982 10984 10986 10988 10990 10992 10995 10997 10999 11001 11002 11002 11003 11003 11003 11004 11004 11005 11005
10825 10831 10837 10843 10848 10853 10858 10863 10869 10875 10880 10884 10889 10893 10898 10902 10906 10911 10916 10920 10924 10928 10931 10935 10939 10946 10952 10955 10956 10957 10959 10960 10960 10962 10963 10964 10966 10967 10969 10971 10971 10973 10975 10976 10978 10980 10981 10983 10985 10986 10989 10992 10994 10996 10997 10999 11000 11001 11001 11002 11002 11002 11002
10814 10821 10827 10833 10838 10844 10849 10854 10859 10865 10871 10875 10880 10885 10889 10893 10898 10903 10908 10913 10917 10922 10925 10929 10935 10941 10944 10944 10945 10948 10951 10953 10954 10957 10958 10960 10961 10963 10965 10967 10968 10970 10972 10973 10974 10975 10976 10978 10980 10982 10984 10986 10988 10990 10993 10995 10997 10998 10999 11000 11000 11000 11000
10803 10810 10816 10823 10829 10834 10840 10845 10850 10856 10861 10866 10871 10876 10880 10885 10890 10894 10900 10905 10910 10915 10919 10923 10927 10931 10932 10933 10935 10939 10942 10946 10949 10952 10954 10955 10957 10959 10961 10963 10964 10966 10968 10970 10971 10972 10973 10975 10977 10979 10981 10982 10984 10986 10989 10991 10993 10995 10997 10998 10998 10999 10999
10792 10798 10805 10813 10819 10824 10830 10835 10840 10847 10852 10856 10861 10866 10871 10876 10882 10886 10891 10897 10903 10907 10911 10916 10919 10922 10924 10926 10929 10931 10934 10937 10941 10945 10947 10949 10952 10955 10957 10959 10961 10962 10963 10965 10967 10969 10971 10973 10974 10976 10978 10980 10982 10984 10986 10988 10990 10992 10993 10995 10997 10997 10998
10781 10787 10794 10801 10807 10813 10820 10825 10831 10837 10842 10847 10852 10857 10862 10867 10872 10877 10882 10888 10894 10898 10903 10907 10910 10914 10916 10919 10922 10925 10927 10930 10933 10936 10940 10943 10947 10950 10953 10955 10957 10958 10960 10961 10963 10965 10967 10970 10971 10973 10975 10978 10980 10982 10985 10987 10988 10990 10991 10992 10994 10995 10996
10771 10775 10781 10789 10795 10802 10808 10814 10821 10827 10832 10838 10843 10847 10853 10858 10863 10868 10874 10879 10884 10889 10893 10897 10900 10904 10908 10911 10915 10919 10922 10925 10928 10930 10933 10936 10940 10944 10947 10949 10951 10953 10955 10957 10959 10961 10963 10966 10968 10969 10971 10974 10977 10980 10982 10985 10987 10989 10989 10990 10991 10992 10993
10760 10764 10769 10775 10783 10790 10796 10802 10809 10815 10822 10828 10833 10838 10843 10849 10854 10859 10865 10870 10875 10880 10884 10887 10892 10896 10899 10903 10908 10912 10916 10919 10922 10925 10927 10929 10932 10936 10939 10942 10944 10946 10948 10951 10953 10955 10958 10961 10963 10964 10966 10969 10972 10975 10977 10980 10983 10986 10987 10988 10988 10989 10990
10748 10753 10757 10762 10769 10777 10784 10790 10796 10803 10810 10817 10823 10828 10834 10839 10844 10850 10855 10860 10866 10871 10875 10879 10883 10887 10891 10895 10898 10901 10904 10909 10913 10917 10921 10923 10926 10929 10932 10935 10937 10940 10942 10944 10947 10950 10952 10955 10958 10960 10962 10965 10967 10969 10971 10974 10977 10981 10983 10985 10985 10985 10986
10735 10741 10745 10750 10756 10763 10771 10778 10783 10790 10797 10805 10812 10818 10823 10829 10835 10840 10846 10850 10856 10861 10865 10869 10874 10878 10883 10887 10889 10892 10896 10901 10906 10910 10913 10917 10920 10923 10926 10929 10932 10934 10936 10939 10941 10944 10947 10950 10953 10955 10958 10960 10962 10965 10966 10968 10971 10975 10978 10980 10981 10981 10982
10721 10727 10733 10738 10744 10750 10758 10765 10772 10777 10784 10792 10800 10806 10813 10818 10824 10830 10836 10841 10846 10851 10856 10860 10865 10869 10874 10879 10881 10884 10889 10894 10898 10902 10906 10910 10913 10917 10920 10923 10926 10929 10931 10933 10935 10938 10941 10945 10948 10951 10953 10955 10957 10959 10961 10964 10967 10970 10973 10975 10976 10976 10977
10707 10714 10721 10726 10732 10738 10745 10753 10759 10766 10772 10779 10786 10794 10801 10807 10813 10819 10825 10831 10836 10841 10846 10851 10856 10860 10865 10869 10872 10876 10882 10887 10890 10894 10898 10902 10906 10909 10913 10916 10919 10922 10925 10927 10929 10933 10936 10940 10943 10945 10947 10950 10952 10954 10957 10960 10963 10965 10968 10970 10969 10968 10971
10693 10700 10707 10714 10720 10726 10732 10739 10746 10753 10759 10766 10773 10780 10788 10795 10802 10808 10814 10820 10826 10831 10836 10841 10846 10850 10855 10859 10863 10868 10873 10877 10882 10886 10890 10894 10898 10902 10906 10910 10913 10916 10918 10920 10924 10927 10931 10934 10937 10939 10942 10944 10947 10950 10953 10955 10958 10961 10964 10965 10963 10962 10967
10676 10684 10692 10700 10706 10712 10719 10726 10732 10739 10746 10753 10760 10767 10774 10782 10789 10796 10802 10808 10814 10820 10826 10831 10836 10840 10845 10850 10854 10859 10863 10867 10873 10878 10883 10887 10891 10894 10899 10903 10907 10910 10912 10914 10918 10921 10925 10928 10931 10933 10935 10938 10941 10944 10946 10949 10953 10955 10956 10957 10958 10961 10966
10658 10667 10675 10683 10690 10698 10704 10711 10718 10724 10732 10739 10746 10754 10762 10769 10776 10783 10790 10796 10802 10808 10814 10820 10825 10830 10835 10840 10845 10849 10853 10859 10864 10869 10874 10878 10883 10887 10892 10895 10899 10903 10906 10908 10911 10915 10918 10922 10924 10926 10929 10932 10934 10936 10939 10942 10946 10948 10948 10950 10953 10957 10963
10641 10650 10658 10666 10674 10682 10688 10695 10702 10709 10717 10723 10731 10740 10749 10756 10763 10770 10777 10783 10789 10796 10802 10808 10814 10819 10824 10830 10835 10839 10844 10849 10855 10859 10864 10869 10873 10876 10880 10883 10888 10893 10897 10900 10904 10908 10911 10914 10916 10919 10922 10925 10927 10929 10933 10936 10939 10941 10944 10946 10948 10951 10958
10624 10632 10640 10648 10657 10665 10672 10678 10686 10694 10702 10708 10715 10725 10735 10743 10750 10756 10763 10770 10776 10783 10790 10796 10802 10808 10813 10820 10825 10830 10834 10839 10845 10849 10854 10859 10863 10867 10871 10874 10878 10882 10886 10890 10895 10899 10903 10907 10909 10911 10914 10918 10920 10922 10926 10929 10932 10935 10939 10942 10944 10947 10952